Home   Weather   Mariehamn   Past weeks

Flag for Åland Islands Past Weather in Mariehamn, Åland Islands — Yesterday and Last 2 Weeks

Now
36 °F

Passing clouds.


Feels Like: 29 °F
Forecast: 24 / 34 °F
Wind: 9 mph from West

Location: Mariehamn / Aland Island

Current Time: Jan 23, 2017 at 9:22:08 pm

Latest Report: Jan 23, 2017 at 8:50 pm


Visibility: N/A

Pressure: 29.80 "Hg

Humidity: 70%

Dew Point: 27 °F

Location of MariehamnLocation

Past Weather in Mariehamn — Graph

°F

Mariehamn Temperature Yesterday

Maximum temperature yesterday: 37 °F (at 11:50 am)
Minimum temperature yesterday: 30 °F (at 12:20 am)
Average temperature yesterday: 34 °F

High & Low Weather Summary for the Past Weeks

 TemperatureHumidityPressure
High41 °F (Jan 19, 8:50 pm)100% (Jan 9, 2:50 am)30.42 "Hg (Jan 9, 2:50 am)
Low18 °F (Jan 9, 7:50 am)75% (Jan 10, 11:20 pm)28.80 "Hg (Jan 12, 5:20 am)
Average33 °F89%29.83 "Hg
* Reported Jan 8 8:20 pm — Jan 23 8:20 pm, Mariehamn, Weather by CustomWeather, © 2017

Note: Actual official high and low records may vary slightly from our data, if they occured in-between our weather recording intervals... More about our weather records

Advertising

Mariehamn Weather History for the Previous 24 Hours

Scroll right to see more
 ConditionsComfort  
Time TempWeatherWind HumidityBarometerVisibility
8:20 pm
Mon, Jan 23
36 °FPassing clouds.9 mph75%29.80 "HgN/A
7:50 pm36 °FPassing clouds.7 mph75%29.80 "HgN/A
7:20 pm36 °FPassing clouds.6 mph75%29.80 "HgN/A
6:50 pm36 °FPassing clouds.9 mph75%29.80 "HgN/A
6:20 pm36 °FPassing clouds.7 mph75%29.80 "HgN/A
5:50 pm36 °FPassing clouds.8 mph81%29.80 "HgN/A
5:20 pm36 °FPassing clouds.8 mph81%29.80 "HgN/A
4:50 pm36 °FPassing clouds.6 mph81%29.80 "HgN/A
4:20 pm36 °FPassing clouds.6 mph81%29.80 "HgN/A
3:50 pm36 °FPassing clouds.6 mph81%29.80 "HgN/A
3:20 pm36 °FPassing clouds.7 mph87%29.80 "HgN/A
2:50 pm36 °FPassing clouds.9 mph87%29.80 "HgN/A
2:20 pm36 °FPassing clouds.7 mph87%29.83 "HgN/A
1:50 pm36 °FPartly sunny.7 mph87%29.83 "HgN/A
1:20 pm36 °FPassing clouds.8 mph87%29.83 "HgN/A
12:50 pm36 °FOvercast.8 mph87%29.83 "HgN/A
12:20 pm36 °FOvercast.8 mph87%29.83 "HgN/A
11:50 am36 °FOvercast.13 mph87%29.86 "HgN/A
11:20 am36 °FOvercast.14 mph87%29.83 "HgN/A
10:50 am36 °FLow clouds.13 mph87%29.86 "HgN/A
10:20 am36 °FLow clouds.13 mph87%29.86 "HgN/A
9:50 am36 °FLow clouds.9 mph87%29.86 "HgN/A
9:20 am36 °FLow clouds.9 mph87%29.86 "HgN/A
8:50 am36 °FLow clouds.10 mph87%29.86 "HgN/A
8:20 am36 °FLow clouds.9 mph87%29.86 "HgN/A
7:50 am34 °FLow clouds.12 mph93%29.86 "HgN/A
7:20 am34 °FLow clouds.10 mph93%29.86 "HgN/A
6:50 am36 °FLow clouds.13 mph87%29.89 "HgN/A
6:20 am36 °FLow clouds.13 mph87%29.89 "HgN/A
5:50 am36 °FLow clouds.10 mph87%29.89 "HgN/A
5:20 am36 °FLow clouds.10 mph87%29.89 "HgN/A
4:50 am36 °FLow clouds.10 mph87%29.89 "HgN/A
4:20 am36 °FLow clouds.10 mph87%29.92 "HgN/A
3:50 am36 °FLow clouds.9 mph87%29.92 "HgN/A
3:20 am36 °FLow clouds.9 mph87%29.95 "HgN/A
2:50 am36 °FLow clouds.10 mph87%29.95 "HgN/A
2:20 am36 °FLow clouds.9 mph87%29.95 "HgN/A
1:50 am36 °FLow clouds.8 mph87%29.95 "HgN/A
1:20 am34 °FLow clouds.7 mph93%29.98 "HgN/A
12:50 am34 °FLow clouds.8 mph93%29.98 "HgN/A
12:20 am34 °FLow clouds.7 mph93%29.98 "HgN/A
11:50 pm
Sun, Jan 22
34 °FLow clouds.9 mph93%30.01 "HgN/A
11:20 pm34 °FLow clouds.7 mph93%30.01 "HgN/A
10:50 pm34 °FLow clouds.9 mph93%30.01 "HgN/A
10:20 pm34 °FLow clouds.6 mph93%30.01 "HgN/A
9:50 pm34 °FLow clouds.8 mph93%30.04 "HgN/A
9:20 pm34 °FLow clouds.7 mph93%30.04 "HgN/A
Weather by CustomWeather, © 2017

See weather overviewHow to use our weather pages